NOAA 16 DEB, 41405

Orbit data source: Space-Track

NOAA 16 DEB, 41405 is space debris in SSO originally from a launch on Thu, 21 Sep 2000 UTC launched from the Air Force Western Test Range (AFWTR). Debris objects in space refer to the collection of defunct objects orbiting the Earth. Examples of debris include non-operational satellites, rocket bodies, and fragments generated from explosions, collisions, or faulty payload assembly.

Loading next visibility...
Identifier
41405, 2000-055KJ
Orbit
SSO
Country
Flag of USUS
Related business
Manufacturer
Unknown
Mission
Spacecraft
Bus & Motor
Unknown
Mass
Unknown
Launch date (UTC)
2000-09-21 (25 years ago)
Launch vehicle
Unknown
Launch site
Air Force Western Test Range (AFWTR)
Object type
Payload
Rocket body
Debris
Shape & HBR
Unknown shape, 0.1 m
Radar Cross Section
Small (<0.1 m²)

Expand to show TLE details & history
Last TLE update: 1 day ago

TLE from 1 day ago
0 NOAA 16 DEB
1 41405U 00055KJ  25346.59364777  .00027305  00000-0  65143-2 0  9990
2 41405  98.8579 110.8508 0012213 195.5597 164.5224 14.53588695508297
Epoch: 2025-12-12T14:14Z
TLE epoch observation values (Epoch: 2025-12-12T14:14:51.167Z)
Latitude
0.00001°
Longitude
175.60456°
Altitude
725.257 km
Speed
7.488 km/s
True Right ascension
07h 23m 24s
True Declination
0° 00' 00"
Sunlit
Object was in full shadow at epoch
Visualization orbit readout
Latitude
Unknown
Longitude
Unknown
Altitude
Unknown
Speed
Unknown
Apparent Right ascension
Unknown
Apparent Declination
Unknown
Sunlit
N/A
Visualization observer readout
Local Sidereal Time
15:16:38
Azimuth
Unknown
Elevation
Unknown
Doppler factor
Unknown
Orbital elements
Apogee altitude
719.731 km
Perigee altitude
702.415 km
Semi-major axis
7,089.21 km
Eccentricity
0.00122
Inclination
98.8579°
RAAN
110.8508°
Arg. of periapsis
195.5597°
True anomaly
164.55969°
Mean anomaly
164.5224°
Eccentric anomaly
164.54105°
Mean motion
3.63619 °/min
Orbital period
99 mins
BSTAR
0.0065143
Loading maneuver chart data...
Computing Atmospheric mass density...
Loading historical data...
Loading historical data...
Loading historical data...
Loading historical data...
Loading historical data...
Loading historical data...
Loading historical data...

Documentation

Showing up to 5 results
|